Location: The Saddle
(36.8333°N, 80.3417°W)
Time: 17:44:09
(UTC-04:00)

ESTCUBE 1 - Visible Passes

Search period start: 31 March 2023 00:00
Search period end: 10 April 2023 00:00
Orbit: 642 x 654 km, 97.9° (Epoch: 31 March)

Date Brightness Start Highest point End Pass type
(mag) Time Alt. Az. Time Alt. Az. Time Alt. Az.
03 Apr ? 22:38:08 10° NNE 22:38:08 10° NNE 22:38:14 10° NNE visible
04 Apr ? 23:04:20 12° N 23:04:20 12° N 23:04:43 10° N visible
05 Apr ? 23:30:31 12° NNW 23:30:31 12° NNW 23:30:49 10° NNW visible
07 Apr ? 22:45:08 13° NNE 22:45:08 13° NNE 22:45:43 10° N visible
08 Apr ? 23:11:18 15° N 23:11:18 15° N 23:12:03 10° N visible
09 Apr ? 23:37:28 13° NNW 23:37:28 13° NNW 23:38:02 10° NNW visible
